Theta_e
303 304 306 305 302 294 299 303 299 299 304 303 300 304 303 299 294 294 297 300 301 307 309 312 315 319 318 326 328 330 330 331 332 332 333 335 337 338 339 340 341 342 343 343 343 342 342 338 332 332 333 334 334 333 332 333 334 336 337 340 338 339 339
303 304 305 305 305 303 300 298 299 306 308 305 302 295 292 290 289 290 298 298 298 297 298 309 310 314 316 325 327 328 329 330 331 332 333 334 336 338 339 340 341 342 343 343 343 343 342 340 334 332 333 334 334 334 333 333 334 335 337 339 339 340 341
301 302 304 302 306 308 303 301 306 304 298 297 297 294 290 290 289 289 293 299 299 298 301 306 307 312 314 322 325 325 328 329 330 332 333 334 336 337 338 339 340 341 342 342 342 342 343 341 336 333 334 334 334 334 334 334 334 336 338 339 341 342 343
302 301 299 298 296 303 307 306 302 307 304 296 297 297 295 292 290 290 289 293 295 302 302 307 307 309 313 321 323 326 328 330 331 332 333 334 335 336 337 339 340 341 342 343 342 342 342 340 335 334 334 334 333 334 335 335 335 337 339 340 342 343 344
300 296 297 297 296 298 300 302 296 301 304 304 301 301 299 297 289 288 288 288 292 300 306 310 310 310 310 319 323 326 327 330 331 332 333 334 335 336 337 339 340 341 342 343 343 343 343 340 336 334 334 333 333 334 334 335 334 335 338 339 342 344 346
292 298 300 300 299 299 298 299 298 299 298 302 297 295 299 297 296 291 288 290 294 302 310 313 312 312 312 316 321 324 327 329 331 332 334 335 336 336 337 339 340 341 342 343 343 343 343 339 334 333 334 334 333 333 334 334 335 336 338 340 342 345 348
298 302 304 302 303 302 300 302 301 302 299 299 295 290 293 294 296 299 293 293 295 306 311 313 313 314 315 317 323 324 326 329 330 332 334 335 337 337 338 339 341 342 343 343 343 342 341 339 334 333 334 333 333 333 334 335 334 336 340 342 344 346 348
299 301 301 304 305 303 300 299 300 300 300 300 300 299 296 294 295 296 296 294 294 304 312 314 314 313 315 319 322 324 327 329 330 331 333 334 335 337 340 341 344 343 345 348 348 341 340 338 333 332 333 334 333 334 334 335 335 336 340 343 345 346 348
293 295 299 297 301 299 297 300 298 300 301 301 300 297 297 298 294 295 292 290 293 305 313 319 324 325 325 326 327 328 327 329 331 331 331 333 335 337 339 339 341 342 342 342 341 342 340 338 333 332 333 333 333 334 335 336 336 338 341 344 345 346 347
289 287 287 291 294 296 298 299 300 302 301 299 298 298 297 291 295 298 294 292 297 303 310 315 321 322 323 325 328 331 329 329 331 331 332 333 334 336 337 338 339 339 340 341 343 344 343 339 334 333 334 333 334 334 336 338 337 339 342 345 346 346 347
293 295 295 299 307 296 296 299 300 300 299 299 298 294 292 293 292 297 296 297 299 305 309 310 313 317 323 324 326 327 329 330 330 330 332 333 334 335 336 337 338 338 339 340 339 340 341 342 339 336 336 336 335 336 337 339 340 340 343 346 347 347 348
299 301 301 300 307 298 297 297 300 300 299 299 297 295 293 296 298 293 299 300 303 304 307 310 312 314 317 320 322 325 326 328 330 331 332 336 332 334 335 335 336 337 337 339 338 339 341 341 342 339 338 338 338 338 338 341 342 341 343 346 347 348 348
302 301 301 300 299 299 300 300 299 301 302 299 298 296 296 299 296 295 297 301 304 306 308 312 312 314 318 321 323 325 327 329 330 330 332 332 331 332 333 333 334 336 335 338 338 339 340 341 341 342 341 341 341 341 341 342 344 342 344 346 347 348 348
300 300 300 300 299 302 303 304 303 303 301 297 297 297 299 300 301 301 302 304 308 309 310 312 315 322 324 328 327 327 328 329 329 330 330 332 331 331 332 333 334 336 337 339 339 339 339 340 341 340 342 344 341 341 341 342 343 344 344 345 347 348 348
300 300 302 301 301 303 303 305 306 306 304 303 304 303 308 309 305 306 306 306 307 311 313 315 324 328 329 327 326 326 325 327 329 329 330 331 332 332 333 334 335 335 336 338 339 339 339 340 341 340 340 342 342 344 344 343 344 345 345 344 346 347 347
294 298 299 299 299 301 303 304 306 305 304 302 305 306 309 304 305 306 306 305 306 311 313 324 323 325 326 326 326 326 326 329 329 329 330 331 332 332 333 335 337 337 335 336 338 339 341 341 343 343 341 342 343 342 343 345 347 347 345 345 345 346 348
292 296 299 299 298 299 298 301 304 305 307 309 308 312 313 312 310 305 303 306 308 310 315 321 320 322 323 324 327 327 326 326 329 329 330 331 332 333 333 335 337 338 338 338 339 341 342 343 343 343 343 343 344 343 343 344 348 347 346 345 345 345 347
293 297 299 300 297 293 294 303 308 310 309 309 308 308 309 312 312 309 308 311 313 316 317 316 317 322 322 325 326 330 329 328 328 330 330 331 333 333 335 336 337 339 340 341 341 342 343 344 345 346 347 346 347 349 348 347 346 346 346 346 345 346 346
293 295 296 295 289 292 303 305 308 311 310 311 310 310 311 312 314 315 316 316 317 318 319 319 317 324 328 332 333 334 332 331 330 330 331 331 333 333 334 336 337 338 340 341 341 342 343 344 345 343 343 347 348 348 347 345 347 346 347 346 346 346 345
294 291 290 287 292 301 304 306 310 315 311 312 311 310 313 312 313 315 314 316 318 321 321 322 323 329 332 332 334 335 337 335 332 331 331 332 333 333 335 336 337 338 339 340 340 340 344 344 344 345 346 349 347 345 343 342 345 347 346 345 346 346 346
294 292 291 292 297 301 303 305 309 310 308 309 307 304 309 313 313 316 317 319 321 322 322 322 323 323 325 322 325 334 337 339 338 333 334 334 334 336 336 338 338 339 341 342 342 342 342 342 342 343 344 347 346 344 341 343 346 343 345 346 346 346 347
292 290 290 291 293 292 296 302 308 314 314 314 311 307 306 312 315 317 321 319 321 322 322 322 322 321 318 317 322 330 336 338 340 342 334 334 336 336 337 338 339 339 340 343 345 343 342 342 342 342 342 343 343 341 341 342 342 341 342 344 346 347 347
294 291 288 287 289 292 299 305 310 312 314 314 311 305 301 310 313 318 322 322 322 322 322 323 320 318 314 315 320 329 335 337 340 342 345 347 340 337 338 338 338 338 339 343 344 345 343 343 344 343 343 342 343 342 343 344 345 345 345 345 346 346 347
295 290 289 290 293 300 309 309 311 314 314 312 306 297 297 307 313 320 324 324 324 323 323 324 320 317 314 314 322 332 335 337 340 342 344 347 349 343 338 339 340 340 342 343 344 343 342 342 344 344 344 343 342 340 341 341 342 343 343 345 346 348 348
299 297 291 294 300 307 311 312 314 315 314 307 297 292 301 311 320 325 325 325 325 324 325 321 322 323 322 323 329 334 337 339 340 343 345 347 349 347 339 339 346 341 341 342 342 343 342 343 343 343 343 341 340 341 341 340 340 343 346 347 347 347 348
294 292 292 294 297 304 310 314 315 315 310 300 295 303 310 315 324 325 326 326 325 327 326 324 323 326 330 333 333 333 336 337 339 341 342 345 348 350 351 345 346 338 339 340 340 341 342 342 342 342 341 339 339 339 340 339 340 342 346 348 349 348 349
297 293 293 294 292 306 312 314 312 315 306 303 306 315 320 323 325 326 326 326 326 326 327 327 327 328 329 329 331 332 334 337 337 339 340 342 344 346 347 348 351 342 337 337 338 339 340 340 340 340 340 339 339 340 338 340 342 344 347 349 350 350 351
295 291 292 293 300 306 313 313 308 313 315 317 316 319 319 323 324 326 325 326 326 326 327 326 327 327 329 329 331 334 335 335 337 338 339 341 343 345 343 343 346 348 340 338 336 335 335 340 341 340 339 339 340 341 341 344 345 349 351 352 353 352 352
299 299 299 305 308 310 314 319 319 321 324 323 321 323 323 324 325 326 327 327 328 328 328 328 327 328 330 330 332 333 333 334 335 336 337 339 339 342 342 340 344 343 340 338 342 342 340 342 342 340 339 338 340 340 342 345 347 349 352 353 353 353 353
309 311 311 313 310 310 315 323 324 325 327 329 329 328 327 327 328 329 328 329 330 329 328 329 328 329 328 329 331 332 334 334 336 336 337 338 339 340 342 344 343 341 339 339 338 340 342 342 338 341 343 340 338 340 343 346 349 352 353 353 353 353 354
303 299 309 309 309 310 312 318 324 324 325 326 329 329 328 329 330 331 331 331 331 331 330 330 329 330 330 330 330 331 332 333 333 334 334 335 336 338 338 340 347 342 338 335 334 336 336 337 337 338 338 340 342 343 344 348 351 353 355 354 354 354 354
302 304 309 313 314 314 314 313 317 319 321 321 323 326 329 330 332 333 333 334 333 333 333 332 331 331 331 331 331 332 332 332 333 333 334 333 335 338 339 340 345 342 342 342 340 339 336 336 338 339 338 338 340 344 348 353 353 352 351 352 352 353 354
307 309 309 310 313 313 313 313 313 315 319 320 319 321 323 327 330 331 332 335 335 334 334 333 334 334 332 331 331 333 333 335 335 335 335 335 335 336 338 339 343 341 342 342 341 341 342 342 340 339 339 341 344 343 345 347 350 349 349 350 350 351 352
303 304 307 311 306 306 310 311 312 315 319 320 318 318 318 318 320 326 328 329 331 332 334 335 335 334 334 334 333 336 336 336 335 336 337 337 338 339 340 340 340 341 343 341 341 341 342 341 342 341 340 340 341 343 343 342 343 344 347 346 346 345 345
302 307 311 313 313 311 313 314 312 312 314 315 316 316 317 318 320 325 327 326 324 324 326 330 332 332 334 335 335 334 335 336 336 336 337 337 338 339 341 340 340 340 341 342 342 342 341 341 341 341 343 342 340 341 341 341 341 341 345 344 343 343 342
306 308 310 313 312 310 310 312 313 313 314 316 318 318 317 318 320 322 323 322 321 321 322 324 328 329 330 333 333 331 332 334 335 335 335 337 338 340 341 339 337 336 338 340 341 341 339 340 341 340 340 342 342 341 339 340 342 343 343 344 342 343 343
307 308 309 309 309 310 313 315 316 316 318 318 317 319 323 320 319 320 319 320 320 321 320 321 323 326 326 328 329 328 329 330 335 335 335 338 337 338 338 338 336 335 335 336 339 339 339 339 340 341 339 341 342 342 340 341 342 343 343 343 343 344 345
Wind_Speed
5 6 2 2 5 1 1 1 3 4 2 7 3 1 1 1 3 3 0 6 4 7 4 2 4 1 1 2 2 4 5 6 8 9 11 12 12 13 13 14 13 14 13 14 14 12 10 9 9 11 11 12 12 11 11 11 11 10 11 11 12 10 9
1 3 5 3 2 4 5 1 3 1 1 4 2 2 2 4 1 4 2 1 6 4 2 4 5 3 2 1 2 2 3 5 9 9 10 12 14 15 15 15 13 13 13 14 14 13 12 11 11 11 12 11 11 12 12 13 11 11 10 10 10 9 9
7 4 2 3 0 1 4 2 2 1 1 2 4 3 1 1 2 3 5 2 4 4 4 3 2 2 2 2 1 3 4 6 9 8 9 9 9 9 10 11 11 11 12 12 12 13 12 11 10 11 11 11 10 10 11 13 14 14 14 11 11 9 9
3 3 2 0 2 2 1 1 1 0 4 3 1 3 3 4 1 2 4 3 4 5 5 5 4 4 3 3 2 6 8 9 9 8 8 9 10 10 10 11 11 12 12 13 14 13 12 12 11 10 12 11 12 11 11 10 11 10 9 10 10 10 10
2 1 0 1 3 1 1 1 2 0 0 3 2 1 1 2 3 2 1 4 5 6 6 5 6 4 3 6 7 7 7 8 8 7 8 8 10 10 10 11 11 12 12 12 13 13 12 10 9 9 10 12 12 10 10 11 12 10 10 10 9 9 7
3 7 4 2 3 2 4 7 6 6 2 2 0 6 1 2 1 3 2 5 8 10 1 6 4 2 2 4 5 6 6 7 7 6 7 7 8 9 9 9 10 11 11 11 11 12 10 10 9 10 10 10 11 11 11 11 9 9 10 9 9 8 7
6 11 5 3 2 2 2 4 1 4 3 5 3 1 3 1 1 4 3 0 5 3 1 3 2 2 3 4 4 5 5 6 5 4 5 5 6 7 8 8 8 8 9 9 10 12 12 12 10 11 10 11 11 12 11 9 10 10 10 10 8 7 8
8 7 3 3 2 4 3 2 2 2 1 5 6 4 4 3 0 0 0 1 5 3 1 4 3 3 2 1 2 3 2 2 3 5 5 6 5 4 5 5 5 7 8 6 4 4 10 10 9 11 10 10 11 10 10 9 11 10 8 7 7 7 8
7 6 7 3 3 3 2 1 2 2 0 2 1 4 1 1 6 5 4 5 3 2 3 3 4 4 4 3 2 1 2 1 3 4 4 5 5 6 7 7 6 6 6 7 9 6 8 9 9 9 10 10 10 10 10 10 10 9 8 7 8 8 9
1 2 2 3 5 3 2 1 1 1 2 1 2 1 1 2 2 4 2 5 9 8 3 5 5 4 3 2 2 1 0 2 4 3 4 5 6 7 7 7 7 9 7 5 2 2 2 5 8 8 8 9 9 10 10 10 9 8 8 7 8 9 8
4 4 5 4 0 2 3 5 1 3 4 1 3 4 4 5 3 4 6 4 2 2 3 3 4 4 1 1 1 1 0 0 1 2 3 5 6 7 9 9 8 7 6 5 5 2 5 3 6 7 8 7 5 6 8 7 8 9 9 9 8 8 8
6 6 3 1 2 2 2 3 7 1 3 3 7 6 4 5 8 4 5 5 2 1 2 3 4 3 4 5 3 3 2 1 2 3 3 4 4 4 5 7 9 9 8 5 7 5 3 4 7 7 7 7 7 7 6 5 5 6 6 8 8 8 8
4 3 2 2 2 3 1 2 4 7 5 1 7 6 4 7 4 9 4 5 3 1 1 1 3 3 2 3 3 2 2 1 1 3 4 5 6 6 7 7 8 10 11 7 8 6 5 5 6 5 6 5 4 4 4 5 4 6 7 8 8 8 8
4 1 1 2 4 1 2 5 5 4 3 4 6 3 2 8 2 2 3 5 1 1 2 3 4 3 2 0 1 2 2 2 2 3 4 5 6 7 8 8 8 8 11 9 8 9 7 7 5 5 3 1 5 5 6 6 7 5 5 7 8 8 9
2 4 3 1 2 3 5 6 10 12 9 3 2 0 0 4 4 3 5 4 4 3 2 3 2 2 0 3 7 4 2 1 2 3 4 5 5 5 6 7 9 9 10 9 8 8 10 9 6 10 8 2 2 1 2 5 6 6 6 7 7 9 10
3 2 7 7 2 2 6 10 12 13 10 6 5 2 3 3 5 3 4 6 3 3 5 2 2 3 6 4 2 2 2 1 1 3 5 5 4 4 6 7 9 11 12 12 11 10 9 10 9 8 7 2 2 4 5 3 1 4 5 5 7 8 7
1 4 1 5 2 2 4 8 7 5 3 2 2 1 6 4 1 4 6 1 2 4 4 2 3 5 5 7 5 2 2 1 2 4 5 4 3 3 6 7 8 10 12 13 13 10 8 7 7 7 6 2 3 3 2 2 2 3 3 5 5 5 4
3 6 8 2 5 4 1 4 0 1 2 3 3 4 4 7 6 1 2 1 3 4 6 5 5 5 3 2 3 1 3 4 3 4 5 4 2 3 5 6 7 8 8 9 11 11 10 7 6 7 6 5 3 2 4 3 4 4 4 4 4 4 4
2 6 5 6 3 3 4 5 3 3 3 4 3 4 8 8 7 4 5 6 7 5 3 2 2 3 1 1 4 6 5 1 2 4 5 4 4 6 7 7 7 7 7 7 8 9 10 10 7 6 5 3 3 4 3 4 3 3 4 5 4 3 4
1 2 3 3 2 2 5 6 5 2 2 0 2 9 10 9 6 2 3 4 5 6 6 6 1 2 1 0 4 6 6 4 2 3 5 5 5 7 8 9 8 9 10 11 11 10 8 10 8 5 5 4 2 3 6 8 6 1 3 4 5 5 6
1 1 0 1 3 3 3 3 3 3 2 3 2 4 4 4 4 4 4 8 8 7 4 3 2 5 3 4 6 6 8 9 6 4 7 5 7 7 7 8 10 9 8 9 10 10 9 11 9 6 4 2 1 3 8 2 1 3 3 4 5 6 7
3 3 2 2 1 1 4 5 4 1 1 2 3 3 3 5 7 4 4 4 6 5 5 5 7 5 3 6 5 7 10 9 9 7 5 5 5 6 7 4 4 6 5 5 6 9 11 8 6 4 4 2 2 2 2 3 3 6 4 5 5 5 7
2 2 2 2 3 4 4 5 6 5 1 2 4 4 2 3 3 5 3 5 4 4 4 6 5 5 4 2 5 6 8 8 7 9 9 8 6 7 8 9 8 9 9 9 8 7 8 10 8 6 5 4 2 3 3 2 3 6 5 6 7 8 9
2 6 1 1 3 0 1 2 4 5 2 2 3 1 1 2 4 4 4 6 6 5 4 1 7 5 2 3 5 7 7 6 4 7 9 10 10 6 5 6 6 6 7 8 8 9 11 11 10 7 7 7 7 5 4 3 6 7 9 11 8 8 8
1 5 0 1 2 3 3 4 7 7 1 2 4 3 3 1 1 3 4 5 4 3 7 6 6 0 1 4 7 9 8 8 7 8 9 10 9 9 3 4 3 5 6 8 9 9 8 7 10 13 12 9 10 10 9 9 13 13 12 10 10 10 6
1 2 5 2 4 4 2 8 7 4 1 1 3 2 1 2 3 3 6 6 6 5 5 3 1 3 4 5 5 7 9 8 7 8 10 10 11 12 8 2 2 5 4 3 3 7 8 9 8 9 11 14 16 14 13 14 17 14 10 11 11 11 9
1 3 4 1 2 1 4 11 4 3 1 2 2 2 2 0 4 7 6 6 5 4 5 4 4 6 7 7 7 7 7 9 10 10 10 10 10 10 13 13 11 2 3 4 4 4 5 7 9 9 10 12 12 10 12 17 16 11 10 11 12 12 10
1 1 1 2 1 5 6 2 1 1 0 2 1 2 3 3 3 6 5 5 3 4 4 4 5 4 7 7 9 7 7 8 8 9 8 7 8 8 10 10 10 10 7 5 4 3 2 0 2 5 8 11 10 10 15 17 10 8 9 9 10 10 10
1 1 2 3 3 4 4 0 1 0 2 3 1 4 4 5 4 1 4 4 4 4 3 4 4 5 5 4 5 5 6 6 6 8 8 8 8 7 8 8 8 8 9 9 7 2 3 3 2 3 6 10 12 15 17 10 7 8 8 8 8 9 9
1 1 1 2 3 4 6 4 4 5 6 4 4 6 8 4 3 3 6 4 7 6 2 4 4 4 4 5 7 7 7 7 7 6 7 8 9 7 5 6 5 9 9 9 10 11 8 9 10 11 10 7 11 15 10 5 6 7 8 8 9 10 9
2 1 6 5 3 4 6 5 5 6 5 5 4 6 5 3 3 5 4 5 4 3 3 5 4 5 4 6 5 6 7 9 9 8 9 8 8 8 9 5 2 7 11 8 2 6 11 9 5 2 4 6 9 9 9 5 4 1 0 2 4 5 7
4 2 2 1 2 2 2 4 7 7 8 7 6 4 3 3 3 4 4 4 4 2 4 3 6 5 4 6 6 6 7 7 7 8 8 9 9 9 7 6 6 5 5 4 7 10 9 3 4 2 2 1 2 3 5 6 7 8 9 9 9 9 9
0 1 3 5 2 5 7 6 5 4 4 4 6 7 7 6 6 5 6 7 5 6 5 3 5 7 7 5 4 6 6 8 9 9 9 8 8 8 10 9 7 7 6 7 7 7 5 1 1 1 2 1 1 2 2 3 4 9 10 12 11 8 5
2 5 5 2 2 1 2 5 5 5 5 3 6 6 8 8 7 6 7 7 6 7 6 6 7 8 6 6 5 7 6 6 7 8 10 10 10 11 9 8 9 10 9 8 8 8 6 6 6 5 4 3 3 3 3 2 9 9 9 6 3 3 4
4 6 5 3 5 4 1 3 4 4 6 5 8 7 5 5 4 3 6 7 8 8 7 5 7 7 7 6 5 7 7 7 5 6 7 9 10 11 11 11 12 12 10 10 8 7 7 7 8 8 7 4 1 2 3 5 7 10 7 1 3 2 2
3 3 2 5 2 3 2 1 4 5 4 3 7 5 5 5 5 5 8 6 6 4 5 7 6 5 5 4 6 6 6 7 7 8 7 7 7 7 8 9 10 12 12 12 11 9 6 6 7 7 7 8 7 2 5 8 7 3 4 4 4 2 3
0 1 2 3 6 6 3 4 4 4 4 4 6 5 4 5 5 4 8 6 5 6 6 7 7 6 5 5 5 5 4 4 5 6 5 6 8 8 7 8 9 9 8 9 9 7 7 7 6 6 6 7 6 7 5 4 4 3 2 5 6 5 5
Wind_Direction
203 231 132 235 138 189 259 98 202 218 191 115 88 69 10 99 58 249 235 322 306 297 336 323 338 75 357 32 116 160 169 165 161 181 186 190 192 191 193 198 197 194 193 196 198 197 190 182 179 181 180 178 179 177 180 186 188 185 186 188 191 194 193
276 240 209 208 221 145 88 116 248 227 99 105 132 239 336 62 111 266 22 259 303 29 289 327 348 353 274 39 168 184 169 161 182 191 190 192 193 194 196 197 195 192 192 193 196 198 191 186 184 182 180 179 179 178 180 183 182 184 193 192 194 192 188
273 340 66 19 342 358 154 186 205 91 317 342 319 86 341 335 318 296 314 288 261 178 247 337 306 288 291 165 145 139 176 195 205 200 201 201 198 193 194 195 193 194 192 193 197 198 192 186 183 183 178 176 177 181 183 182 184 189 189 191 193 193 190
311 348 65 97 288 345 99 116 46 320 107 167 142 201 174 115 263 48 293 22 274 215 216 188 237 232 243 136 191 215 206 205 204 204 196 190 189 195 195 194 194 193 192 191 193 195 193 184 181 179 176 176 179 181 180 188 192 190 188 191 190 191 192
5 302 233 196 166 148 55 211 312 304 342 214 107 45 129 218 185 173 220 331 283 263 213 174 216 217 209 177 202 218 219 215 211 203 192 189 193 194 196 194 192 190 191 190 190 193 192 181 179 175 176 179 180 177 182 183 186 189 193 196 188 196 183
330 251 234 197 161 167 169 168 211 176 120 219 172 267 18 86 111 232 127 252 268 272 178 214 210 225 207 215 198 211 225 220 208 199 193 189 191 197 195 197 192 191 191 189 186 188 187 176 174 176 177 177 176 179 184 185 185 189 191 189 194 190 188
264 271 295 191 182 132 181 140 234 151 143 105 117 173 276 25 241 111 157 105 275 251 255 258 238 199 211 215 188 221 217 216 208 195 185 193 194 190 191 194 192 185 186 189 189 186 183 177 176 175 175 178 180 180 180 180 179 192 190 193 189 183 184
289 311 329 25 98 141 86 18 77 84 197 180 187 182 185 145 44 11 356 240 252 284 290 278 245 245 262 333 195 224 223 198 185 169 173 177 169 168 169 175 169 168 165 134 87 191 183 179 172 174 175 178 178 177 179 176 188 188 185 176 176 180 186
331 346 352 1 334 47 85 263 274 208 93 68 125 97 96 249 217 172 124 247 288 273 343 14 49 46 32 358 350 173 181 178 158 167 168 160 154 153 161 162 150 132 144 164 172 184 184 176 175 174 171 177 176 176 175 179 189 184 181 175 176 185 186
35 334 344 302 311 290 264 158 338 339 263 160 105 177 186 159 278 120 145 252 252 276 342 35 36 24 7 345 342 35 116 172 168 157 164 158 159 168 161 146 144 153 152 145 126 142 138 171 169 164 167 172 176 174 179 181 181 175 180 179 186 183 183
183 207 215 249 88 356 4 299 155 263 268 228 118 109 99 203 205 189 235 183 278 338 353 3 352 355 334 292 325 310 317 105 135 140 159 171 167 169 166 160 154 143 126 81 77 209 149 149 132 140 144 148 157 173 181 183 177 177 177 177 178 179 185
204 194 210 243 181 242 243 339 316 323 245 175 150 154 210 175 107 276 257 198 156 261 291 345 351 332 302 293 307 315 320 266 182 164 147 137 139 160 155 145 149 148 127 100 130 202 199 172 133 130 138 147 156 165 182 186 174 172 175 174 177 182 184
242 216 225 245 219 203 227 313 309 324 298 184 183 225 195 138 166 205 259 157 137 248 239 283 267 250 251 295 302 252 219 159 128 142 156 167 172 175 171 164 149 146 162 158 164 186 220 195 149 118 132 137 134 155 162 167 175 190 181 175 181 184 185
312 356 246 247 143 88 56 7 350 342 349 236 229 264 211 192 192 211 141 152 187 236 302 312 294 303 274 186 49 56 102 185 192 187 194 186 183 182 180 170 167 165 166 166 169 172 193 230 181 115 356 89 146 160 175 174 179 180 170 188 183 185 192
312 308 308 89 10 59 42 354 8 3 351 4 47 351 342 78 47 103 141 98 59 350 326 296 309 356 68 55 32 9 338 339 202 216 222 213 195 183 173 172 175 172 180 184 162 189 187 187 183 170 175 317 352 98 166 169 171 167 174 191 195 191 202
313 318 350 332 31 82 57 18 3 357 355 16 0 10 281 141 156 165 84 67 35 317 328 308 352 9 45 23 3 5 335 332 291 249 245 232 212 174 173 175 173 175 188 195 174 194 185 166 163 169 152 109 1 13 17 19 66 146 172 194 206 211 205
264 264 7 318 20 45 10 353 327 328 327 346 286 282 29 39 182 77 97 188 225 254 276 314 352 18 17 15 11 358 328 279 222 247 256 252 233 173 175 176 175 180 187 187 186 181 175 152 135 114 101 81 22 80 96 135 151 162 193 209 210 212 190
254 299 336 1 54 53 260 233 184 182 63 19 26 18 350 2 57 139 177 242 283 331 359 15 359 34 16 343 329 260 267 297 267 252 250 243 207 165 182 184 174 178 186 182 181 171 160 154 138 118 121 128 145 155 164 171 157 168 183 213 213 204 191
294 324 7 42 46 232 240 286 261 229 213 131 135 88 47 20 30 52 34 360 357 327 287 279 219 128 136 106 55 29 14 248 223 239 251 239 188 181 177 178 175 167 166 152 140 151 156 149 140 119 112 133 140 128 83 63 83 140 184 190 189 175 193
39 42 42 92 211 242 290 291 290 259 153 235 77 23 13 21 9 352 27 319 335 3 16 25 81 166 178 222 59 39 27 25 233 235 252 231 193 193 193 182 175 166 166 160 158 156 146 132 119 119 121 126 113 63 54 12 5 52 237 213 177 162 180
196 173 116 224 293 341 357 1 7 41 348 352 49 89 349 344 340 2 10 358 2 354 5 335 342 318 335 27 357 14 19 16 3 254 255 237 217 215 209 188 185 181 166 157 156 147 153 148 142 156 145 106 64 85 84 100 287 295 236 229 225 191 185
118 131 51 10 21 186 275 240 263 330 231 204 169 102 340 331 0 356 14 16 342 358 338 347 334 333 53 2 318 357 1 7 5 358 328 273 239 218 222 186 160 165 154 144 163 161 160 156 142 146 135 97 55 13 78 113 246 258 268 253 221 216 211
80 52 127 200 156 244 214 276 298 312 322 167 132 70 11 282 342 332 21 25 13 12 360 337 355 44 31 266 269 332 349 350 7 2 351 339 296 227 209 197 181 173 174 168 173 185 160 147 152 154 174 165 181 187 194 158 243 282 278 265 248 223 216
166 135 97 207 208 193 354 255 299 312 9 147 68 55 276 270 331 327 20 27 16 357 6 24 54 67 354 272 293 328 328 324 349 7 1 353 345 303 214 224 189 176 166 156 165 179 186 166 142 151 178 179 193 207 207 224 247 245 249 251 239 228 226
150 103 183 328 304 271 273 307 321 316 201 101 88 189 232 246 341 2 30 33 27 16 34 33 54 357 205 246 290 312 325 354 18 12 12 7 6 348 252 191 147 143 175 180 175 180 193 178 170 177 184 185 207 208 204 198 225 228 229 238 256 252 212
153 181 118 196 243 243 295 322 309 279 119 142 204 235 200 113 65 55 52 32 11 29 55 39 38 310 326 308 323 343 352 350 353 14 11 11 16 20 20 25 127 125 146 174 179 181 172 163 174 201 192 194 206 202 202 214 225 226 223 232 237 244 236
60 41 83 40 151 243 34 327 340 17 81 231 217 142 21 141 100 78 51 49 7 23 30 28 14 351 342 353 345 337 345 3 358 358 9 15 16 25 27 22 6 13 157 168 178 172 173 181 184 197 212 220 218 206 211 223 224 219 221 226 234 238 236
150 83 113 186 213 263 321 19 127 306 236 285 193 116 72 7 55 69 74 45 44 38 66 26 6 7 356 346 352 345 357 357 353 357 4 12 21 28 43 33 14 13 23 25 24 346 358 136 185 212 213 225 229 223 227 229 219 209 212 216 223 229 231
118 196 211 258 266 266 291 94 317 297 359 42 145 99 89 78 32 255 92 68 61 74 63 50 44 20 12 338 330 347 331 343 356 357 348 353 3 26 39 28 23 28 28 11 351 279 252 310 323 260 239 234 233 232 236 231 221 216 210 212 214 224 228
336 76 165 295 340 345 344 21 30 33 34 18 43 80 87 56 65 49 83 67 58 44 18 60 34 41 329 355 354 353 351 354 353 349 353 356 355 7 63 90 39 40 13 7 3 356 23 33 11 6 353 304 264 251 260 246 225 213 202 201 210 220 224
64 328 326 13 345 337 2 5 23 44 42 32 27 59 62 84 74 73 59 89 96 100 73 77 75 42 22 36 15 1 357 1 354 354 349 348 348 351 354 356 87 150 154 142 83 347 360 357 14 19 306 2 350 323 305 274 257 287 189 237 250 245 236
104 190 262 285 318 313 344 35 33 15 360 9 23 37 54 72 80 86 105 117 87 124 63 60 72 56 34 45 27 18 10 356 352 351 350 343 344 343 337 333 354 5 22 66 129 148 151 206 277 300 333 267 192 255 232 187 172 165 172 181 194 198 199
302 320 289 289 311 34 18 16 37 26 10 2 20 23 27 25 51 53 45 46 57 55 48 35 58 54 29 28 22 35 17 12 3 353 346 344 336 333 344 340 346 351 356 5 15 39 65 127 181 203 118 296 320 35 348 300 228 198 211 210 201 203 176
168 171 213 147 126 36 343 13 9 7 353 25 63 40 39 20 19 14 58 47 41 51 39 37 51 57 40 24 27 40 35 22 5 359 357 354 354 350 347 341 347 349 354 359 4 9 20 6 353 354 335 344 3 18 42 315 295 274 235 216 206 165 112
216 242 240 132 132 154 223 275 327 14 10 25 52 40 39 31 35 43 72 65 44 39 30 30 56 61 55 39 44 47 30 14 7 5 4 2 360 357 353 357 358 354 347 348 353 4 8 355 352 344 331 335 52 84 35 298 268 270 286 358 49 42 115
254 264 215 152 132 137 129 33 38 28 6 59 76 61 47 42 31 48 66 58 70 45 42 36 35 49 60 44 54 49 26 14 14 10 0 4 359 355 358 4 359 358 352 351 353 347 350 353 340 344 333 326 322 307 230 233 234 201 129 106 95 98 148
225 272 142 143 115 120 129 96 61 47 24 47 75 55 49 61 45 54 67 55 36 44 39 26 14 19 31 34 47 52 45 15 14 19 7 12 10 9 357 355 4 351 348 348 342 353 348 330 330 333 329 312 298 283 263 278 300 284 198 131 125 145 160